XW-2E

Last updated on Wed Mar 27 2024 00:02:59 GMT+0000 (Greenwich Mean Time)

1 40909U 15049L 24085.65395342 .02414060 85012-2 21808-2 0 9993 2 40909 97.3985 116.2207 0005693 197.2617 162.8476 16.14833774473068

Satellite not in orbit